OpenBCM V1.07b12 (Linux)

Packet Radio Mailbox

DB0FHN

[JN59NK Nuernberg]

 Login: GUEST





  
I6KZR  > KEPLER   03.01.03 09:18l 317 Lines 15753 Bytes #999 (0) @ WW
BID : 16014_IK6WID
Read: DB0FHN GUEST
Subj: 2L Keplerian Elements #002
Path: DB0FHN<DB0RGB<DB0FSG<I4UKI<I6ZLO<IK6WID
Sent: 030102/2236Z @:IK6WID.#AP.IMAR.ITA.EU #:16014 [MONTE URANO]  FBB7.00i
From: I6KZR@IK6WID.#AP.IMAR.ITA.EU
To  : KEPLER@WW


OSCAR 7
1 07530U 74089B   03001.72787133 -.00000029 +00000-0 +10000-3 0 01397
2 07530 101.7696 049.9504 0012389 170.1414 189.9901 12.53563184287191
GOES 2
1 10061U 77048A   02359.35983672 -.00000305  00000-0  00000+0 0   322
2 10061  14.1180  13.8737 0014065 196.4899 163.4904  0.99401889 38282
GOES 3
1 10953U 78062A   03001.07118427 -.00000097 +00000-0 +00000-0 0 08766
2 10953 013.3873 017.5997 0004450 337.9098 022.0760 01.00277581043011
GOES 6
1 14050U 83041A   02365.19374659  .00000058  00000-0  10000-3 0  4099
2 14050  10.3375  35.7955 0002757 356.3386   3.6439  1.00286901130141
OSCAR 10
1 14129U 83058B   02356.12292339 -.00000267  00000-0  10000-3 0  9077
2 14129  25.8271 174.0668 6049945 312.5642  10.0639  2.05871554118866
OSCAR 11 (UoSAT 2)
1 14781U 84021B   03001.94793984 +.00002090 +00000-0 +29789-3 0 00612
2 14781 098.1112 335.5330 0009773 012.1936 347.9506 14.77842694009202
NOAA 10
1 16969U 86073A   03001.94078576 +.00000292 +00000-0 +13820-3 0 06699
2 16969 098.7260 356.1650 0011752 224.7270 135.2963 14.27043840847114
GOES 7
1 17561U 87022A   02355.38651376  .00000102  00000-0  10000-3 0  7897
2 17561   7.4944  55.8496 0008079 326.4312  34.0198  1.00298198 41156
COSMOS 1861
1 18129U 87054A   03001.91344921 +.00000089 +00000-0 +80452-4 0 01882
2 18129 082.9233 181.7915 0012449 006.1204 354.0114 13.72695508777976
EUTELSAT 1-F4 (ECS 4)
1 18351U 87078B   02352.12522730 -.00000062  00000-0  10000-3 0   233
2 18351   7.0733  58.7527 0004962 184.4653 172.0391  0.96710043 42061
NOAA 11
1 19531U 88089A   03001.90742370 +.00000259 +00000-0 +15826-3 0 05052
2 19531 098.9082 083.4338 0011570 341.8516 018.2239 14.14513688736066
ASTRA 1A
1 19688U 88109B   02364.86148297  .00000041  00000-0  10000-3 0  5511
2 19688   1.2492  96.7833 0003014 182.8793 134.7898  1.00272573 31690
OSCAR 14 (UOSAT 3)
1 20437U 90005B   03001.74999013 +.00000197 +00000-0 +89953-4 0 01364
2 20437 098.2793 047.6313 0011054 349.0550 011.0387 14.31220486675657
OSCAR 15 (UOSAT 4)
1 20438U 90005C   03001.66491978 +.00000158 +00000-0 +76759-4 0 07669
2 20438 098.2537 036.8871 0010359 001.0685 359.0518 14.30184041675313
OSCAR 16 (PACSAT)
1 20439U 90005D   03001.70279447 +.00000194 +00000-0 +88812-4 0 08350
2 20439 098.3256 058.9882 0011425 355.6186 004.4880 14.31450481675687
OSCAR 17 (DOVE)
1 20440U 90005E   03001.70097800 +.00000308 +00000-0 +13099-3 0 07443
2 20440 098.3449 062.7687 0011472 354.0781 006.0260 14.31727624675759
OSCAR 18 (WEBERSAT)
1 20441U 90005F   03001.96592240 +.00000265 +00000-0 +11523-3 0 09927
2 20441 098.3424 062.2649 0011724 354.9291 005.1776 14.31533893675778
OSCAR 19 (LUSAT)
1 20442U 90005G   03001.67021018 +.00000280 +00000-0 +12075-3 0 09342
2 20442 098.3552 064.9177 0012280 354.0461 006.0564 14.31695949675781
JAS 1B (FUJI 2)
1 20480U 90013C   03001.91304912 +.00000000 +00000-0 +64227-4 0 04798
2 20480 099.0398 333.6410 0540944 111.7542 254.2028 12.83327456604409
HST
1 20580U 90037B   03001.10995376  .00001871  00000-0  14291-3 0  2831
2 20580  28.4672 352.8393 0004303 122.8333 319.6121 14.97597227495364
EUTELSAT 2-F1
1 20777U 90079B   02363.88046470 -.00000118  00000-0  10000-3 0    96
2 20777   3.3773  85.0294 0001628 236.2766 169.8068  1.00384072 25599
FENGYUN 1B
1 20788U 90081A   03001.93740590 +.00000495 +00000-0 +35230-3 0 09033
2 20788 099.0204 344.5972 0015773 002.7994 357.3256 14.02136092630861
EUTELSAT 2-F2
1 21056U 91003B   02363.89428382  .00000128  00000-0  10000-3 0  6032
2 21056   2.6092  88.4131 0002415 217.3203 162.7392  1.00269142 31379
INFORMATOR 1
1 21087U 91006A   03001.96562681 +.00000074 +00000-0 +61176-4 0 06107
2 21087 082.9413 352.6596 0036736 024.7016 335.5889 13.74921355598348
COSMOS 2123
1 21089U 91007A   03001.85684927 +.00000045 +00000-0 +30765-4 0 04911
2 21089 082.9239 216.7761 0030885 059.5295 300.8903 13.74398696597239
ASTRA 1B
1 21139U 91015A   02364.00000000  .00000128  00000-0  10000-3 0  1567
2 21139   0.0122 319.8851 0002995  65.1991  92.3752  1.00273184 31686
METEOSAT 5 (MOP 2)
1 21140U 91015B   03001.79588238 +.00000014 +00000-0 +10000-3 0 06590
2 21140 005.5239 070.2571 0001079 154.6659 225.7305 01.00278351045571
NOAA 12
1 21263U 91032A   03001.95002355 +.00000521 +00000-0 +24081-3 0 09729
2 21263 098.6205 352.3999 0012929 156.6568 203.5199 14.25046840604436
OSCAR 22 (UoSAT 5)
1 21575U 91050B   03001.95155605 +.00000485 +00000-0 +17007-3 0 06964
2 21575 098.1365 356.4914 0006455 280.5005 079.5455 14.39119171601432
METEOR 3-5
1 21655U 91056A   03001.96413223 +.00000051 +00000-0 +10000-3 0 04900
2 21655 082.5577 072.5042 0012894 322.3703 037.6516 13.16977571547213
UARS
1 21701U 91063B   03001.73475913 +.00000937 +00000-0 +88507-4 0 07891
2 21701 056.9806 225.6454 0006746 110.2170 249.9525 15.02748158618529
EUTELSAT 2-F3
1 21803U 91083A   02364.03689237 +.00000134 +00000-0 +10000-3 0 05042
2 21803 002.4714 089.6383 0002540 211.8649 191.4787 01.00269107036498
INMARSAT 2-F3
1 21814U 91084B   02365.27697718 +.00000116 +00000-0 +10000-3 0 05922
2 21814 001.7179 057.6096 0002442 208.2427 151.4178 01.00275531040402
INMARSAT 2-F4
1 21940U 92021B   03001.45733081 -.00000351 +00000-0 +10000-3 0 05603
2 21940 002.3392 018.5578 0001957 245.9905 109.7364 01.00267479039195
EUTELSAT 2-F4
1 22028U 92041B   02365.09071760 -.00000094  00000-0  10000-3 0  3112
2 22028   1.5937  93.1263 0005707 208.0581 178.4586  1.00271830 31283
OSCAR 23 (KITSAT 1)
1 22077U 92052B   03001.91077424 -.00000037 +00000-0 +10000-3 0 02857
2 22077 066.0866 225.5334 0014737 284.5645 075.3738 12.86407123488177
ASTRA 1C
1 22653U 93031A   02364.00000000  .00000128  00000-0  10000-3 0  7824
2 22653   0.0122 319.8851 0002995  65.1991  92.3588  1.00273184 30381
METEOR 2-21
1 22782U 93055A   03001.80371752 -.00000099 +00000-0 -10362-3 0 04822
2 22782 082.5492 252.7797 0023508 118.0818 242.2727 13.83525282471486
KITSAT B
1 22825U 93061C   03001.92719347 +.00000212 +00000-0 +99929-4 0 04907
2 22825 098.2794 034.0442 0009322 044.5473 315.6459 14.28925028483076
POSAT 1
1 22826U 93061D   03001.61481073 +.00000235 +00000-0 +10890-3 0 03123
2 22826 098.2812 034.8396 0009887 043.5869 316.6087 14.29146134483070
ITAMSAT
1 22828U 93061F   03001.60663665 +.00000225 +00000-0 +10389-3 0 03912
2 22828 098.2752 035.0947 0010719 023.5768 336.5895 14.29491284451276
EYESAT A
1 22829U 93061G   03001.62439593 +.00000305 +00000-0 +13470-3 0 04224
2 22829 098.2788 035.6940 0010531 023.7538 336.4124 14.29741863483207
METEOSAT 6
1 22912U 93073B   02363.07376159  .00000070  00000-0  00000+0 0  6151
2 22912   2.5479  82.6906 0002862 207.8238 202.8288  1.00267117 31788
GOES 8
1 23051U 94022A   02364.29789727 -.00000242  00000-0  00000+0 0  5404
2 23051   0.4925 100.2377 0002373 159.7927 230.9121  1.00263661 39306
ASTRA 1D
1 23331U 94070A   02362.90693288  .00000150  00000-0  00000+0 0  7960
2 23331   0.0566 200.0786 0003606  30.3573 217.5587  1.00276769 30354
RADIO ROSTO
1 23439U 94085A   03001.66594848 -.00000042 +00000-0 +12453-4 0 06860
2 23439 064.8134 118.9428 0148239 124.5881 236.9129 11.27548332330192
NOAA 14
1 23455U 94089A   03001.97001596 +.00000208 +00000-0 +13604-3 0 05274
2 23455 099.1884 019.2845 0009471 007.8886 352.2432 14.13278135412752
HIMAWARI 5 (GMS 5)
1 23522U 95011B   03001.11435623 -.00000277 +00000-0 +00000-0 0 00335
2 23522 001.6318 083.4217 0000856 090.1843 108.1055 01.00274215028400
HOT BIRD 1
1 23537U 95016B   02364.09542247  .00000091  00000-0  10000-3 0  5315
2 23537   0.1178  62.3444 0060331 260.0229 182.7219  1.00272908 28465
GOES 9
1 23581U 95025A   02354.75358751 -.00000058  00000-0  00000+0 0  4410
2 23581   0.5117  95.2472 0006996 240.2116 278.5179  1.00272358 27769
INMARSAT 3-F1
1 23839U 96020A   02362.74878715  .00000025  00000-0  00000+0 0  8414
2 23839   0.0618  18.2214 0005592 221.8028 190.5550  1.00274532 24694
ASTRA 1F
1 23842U 96021A   02364.00000000  .00000128  00000-0  10000-3 0  5555
2 23842   0.0122 319.8851 0002995  65.1991  92.4014  1.00273184 24616
JAS 2
1 24278U 96046B   03001.91392537 -.00000006 +00000-0 +31205-4 0 05742
2 24278 098.5308 159.6223 0350961 340.1754 018.6023 13.52867924314863
UNAMSAT
1 24305U 96052B   03001.91672045 +.00000205 +00000-0 +20364-3 0 06682
2 24305 082.9345 298.0220 0030430 339.5200 020.4725 13.73445333316941
INMARSAT 3-F2
1 24307U 96053A   02365.27116899 -.00000117  00000-0  00000+0 0   640
2 24307   0.0479  30.0937 0004704 249.5898 261.9372  1.00270574 23124
HOT BIRD 2
1 24665U 96067A   02364.09542247  .00000096  00000-0  10000-3 0  3374
2 24665   0.0380 203.9859 0010678  49.4036 252.3771  1.00274592 22753
INMARSAT 3-F3
1 24674U 96070A   03001.47477817 +.00000043 +00000-0 +10000-3 0 09591
2 24674 000.0509 358.4031 0004289 274.2598 177.0430 01.00273070022100
GOES 10
1 24786U 97019A   02364.36769851  .00000098  00000-0  00000+0 0  4815
2 24786   0.0078  67.7932 0002732 251.6039 136.1101  1.00273684 20835
INMARSAT 3-F4
1 24819U 97027A   03001.38393552 -.00000281 +00000-0 +10000-3 0 08637
2 24819 000.0269 310.3382 0003632 340.3879 254.1302 01.00270503020525
FENGYUN 2A
1 24834U 97029A   02363.87585822 -.00000191  00000-0  00000+0 0  9415
2 24834   2.4466  88.8933 0001931 238.4439 172.5930  1.00268131 20338
HOT BIRD 3
1 24931U 97049A   02364.09542247  .00000095  00000-0  10000-3 0  4180
2 24931   0.0070 329.5839 0008855 285.9646 250.1886  1.00273530 19576
METEOSAT 7
1 24932U 97049B   02362.83210071 +.00000005 +00000-0 +00000-0 0 02206
2 24932 000.1072 018.3543 0001224 231.1370 147.1122 01.00270373019508
ASTRA 1G
1 25071U 97076A   02364.00000000  .00000128  00000-0  10000-3 0  3864
2 25071   0.0122 319.8851 0002995  65.1991  92.3633  1.00273184 18633
